Orbital Elements at Epoch 2459000.5 (2020-May-31.0) TDB
Reference: JPL 10 (heliocentric ecliptic J2000)
Element | Value | Uncertainty (1-sigma) | Units |
e | .2954878864766594 | 7.5605e-08 | |
a | 2.26819376207817 | 2.0047e-08 | au |
q | 1.597969981202149 | 1.5972e-07 | au |
i | 6.811850129912017 | 6.6362e-06 | deg |
node | 84.19988352643411 | 0.00010623 | deg |
peri | 214.2713993657279 | 0.00011167 | deg |
M | 114.4682479409787 | 3.9419e-05 | deg |
tp | 2458603.764384700605 (2019-Apr-30.26438470) | 0.00013244 | TDB |
period | 1247.724360919935 3.42 | 1.6542e-05 4.529e-08 | d yr |
n | .2885252634921511 | 3.8251e-09 | deg/d |
Q | 2.938417542954192 | 2.5971e-08 | au |
|
| | Orbit Determination Parameters
Additional Information
|